Starlink 4388

operational
NORAD ID: 53651 Int'l Des: 2022-105 Owner: SPXS Country: US Constellation: starlink
LEOCIRCULARRETROGRADESSO

About Starlink 4388

Description loading...

Live Position

Loading 3D Globe...

Upcoming Passes

Altitude History

Altitude vs Time

uPlot chart will show altitude changes over time

Two-Line Element Set

1 53651U 22105D 25351.65154590 -.00000767 00000-0 -48915-4 0 9994
2 53651 97.6013 230.3627 0002427 84.1106 276.0398 15.05646758180951
Epoch: Dec 17, 2025 • Age: 8 hours

Current Status

Altitude 558.7 km
Velocity 7.59 km/s
Sub-Earth Point 61.80°N, 23.8°W
Launch Date Aug 31, 2022
Age 3.2 years
Type internet

Technical Details

Classification Payload
Mass 300.00 kg
Dry Mass 290.00 kg
Total Mass 300.00 kg
Length 0.20 m
Diameter 2.80 m
Span 9.00 m
Shape Box + pan
Manufacturer SPXS
Bus Type Starlink
Phase Status In Orbit
Owner/State SPXS/US

Large Constellations

Loading constellations...